Location: Clarks Summit,Pa.
(41.5000°N, 75.6000°W)
Time: 08:51:15
(UTC-04:00)

Tiangong 2 - Visible Passes

Search period start: 22 July 2018 00:00
Search period end: 01 August 2018 00:00
Orbit: 386 x 394 km, 42.8° (Epoch: 22 July)

Date Brightness Start Highest point End Pass type
(mag) Time Alt. Az. Time Alt. Az. Time Alt. Az.
22 Jul 1.3 21:19:48 10° W 21:22:57 56° SSW 21:25:28 14° ESE visible
23 Jul 2.8 21:59:20 10° W 22:01:50 21° SSW 22:02:33 19° S visible
24 Jul 2.2 21:01:19 10° W 21:04:15 33° SSW 21:07:10 10° SE visible
25 Jul 3.6 21:41:48 10° WSW 21:42:59 12° SW 21:44:11 10° SSW visible
